User: anonymous   Login
Location: Unspecified
(0.0000°N, 0.0000°E)
Time: 03:34:37
(UTC+00:00)
Language:

MUNIN - Orbit

View from above orbital plane
View from above orbital plane
View from above satellite
View from above satellite

Ground track
Ground track

The orbit data is extracted from the following two-line orbital elements,

1 26621U 00075C   17173.64089374 -.00000969 +00000-0 -87453-3 0  9995
2 26621 095.3998 228.3142 0713645 063.1046 304.1180 13.04128113789218
Epoch (UTC): 22 June 2017 15:22:53
Eccentricity: 0.0713645
inclination: 95.3998°
perigee height: 702 km
apogee height: 1790 km
right ascension of ascending node: 228.3142°
argument of perigee: 63.1046°
revolutions per day: 13.04128113
mean anomaly at epoch: 304.1180°
orbit number at epoch: 78921

The dashed part of the orbit path shows where the satellite is in the earth's shadow,  

DLR